This is the latest recevied weather packets stored in our database for station/object AK4NG. If no packets are shown the sender has not sent any weather packets the latest 10 day(s).
| Time | Temp. | Humidity | Pressure | Rain* | Wind** | Luminosity | Snow |
|---|---|---|---|---|---|---|---|
| 1777517068 | 18.89° C | 95% | 1014.3 hPa | 1.78 mm | - | 0 W/m² | - |
| 1777516764 | 18.89° C | 95% | 1014.4 hPa | 1.78 mm | - | 0 W/m² | - |
| 1777516460 | 18.89° C | 95% | 1014.2 hPa | 0 mm | - | 0 W/m² | - |
| 1777516156 | 18.89° C | 95% | 1014.2 hPa | 1.27 mm | - | 0 W/m² | - |
| 1777515854 | 18.89° C | 95% | 1014.4 hPa | 3.05 mm | - | 0 W/m² | - |
| 1777515550 | 19.44° C | 94% | 1014.5 hPa | 1.78 mm | - | 0 W/m² | - |
| 1777515247 | 19.44° C | 93% | 1014.5 hPa | 3.05 mm | - | 0 W/m² | - |
| 1777514943 | 20° C | 93% | 1014.7 hPa | 1.27 mm | - | 0 W/m² | - |
| 1777514639 | 20° C | 92% | 1015 hPa | 0 mm | - | 0 W/m² | - |
| 1777514336 | 20° C | 90% | 1015 hPa | 0 mm | - | 0 W/m² | - |
| 1777514033 | 20° C | 90% | 1014.8 hPa | 1.78 mm | - | 0 W/m² | - |
| 1777513731 | 20° C | 91% | 1014.5 hPa | 1.78 mm | - | 0 W/m² | - |
| 1777513428 | 20° C | 91% | 1014.2 hPa | 0 mm | - | 0 W/m² | - |
| 1777513124 | 20° C | 91% | 1014.1 hPa | 0 mm | - | 0 W/m² | - |
| 1777512819 | 20.56° C | 93% | 1013.6 hPa | 0 mm | - | 0 W/m² | - |
| 1777512517 | 20.56° C | 93% | 1013.8 hPa | 0 mm | - | 0 W/m² | - |
| 1777512213 | 20.56° C | 94% | 1013.8 hPa | 0 mm | - | 0 W/m² | - |
| 1777511911 | 20.56° C | 94% | 1013.6 hPa | 0 mm | - | 0 W/m² | - |
| 1777511608 | 20.56° C | 93% | 1013.7 hPa | 0 mm | - | 0 W/m² | - |
| 1777511306 | 21.11° C | 92% | 1013.8 hPa | 0 mm | - | 0 W/m² | - |
| 1777511001 | 21.11° C | 92% | 1013.7 hPa | 0 mm | - | 0 W/m² | - |
| 1777510699 | 21.67° C | 90% | 1014 hPa | 1.78 mm | - | 0 W/m² | - |
| 1777510394 | 21.67° C | 88% | 1014.5 hPa | 1.78 mm | - | 0 W/m² | - |
| 1777510090 | 22.22° C | 87% | 1014.1 hPa | 0 mm | - | 0 W/m² | - |
| 1777509788 | 22.22° C | 87% | 1014.1 hPa | 0 mm | - | 0 W/m² | - |
* Rain latest hour (hover to see other rain measurements)
** Current wind speed in m/s (hover to see current wind gust speed)